Total_Precipitation_Accumulation
0.00 0.00 0.00 0.00 0.00 0.00 0.00 0.00 0.00 0.00 0.00 0.00 0.00 0.00 0.00 0.00 0.00 0.00 0.01 0.01 0.01 0.01 0.02 0.02 0.02 0.03 0.03 0.03 0.04 0.04 0.05 0.09 0.13 0.07 0.04 0.04 0.05 0.07 0.08 0.10 0.09 0.06 0.06
0.00 0.00 0.00 0.00 0.00 0.00 0.00 0.00 0.00 0.00 0.00 0.00 0.00 0.00 0.00 0.00 0.01 0.01 0.01 0.01 0.01 0.01 0.01 0.02 0.02 0.03 0.04 0.03 0.03 0.04 0.05 0.09 0.16 0.16 0.09 0.07 0.06 0.06 0.08 0.08 0.06 0.06 0.06
0.00 0.00 0.00 0.00 0.00 0.00 0.00 0.00 0.00 0.00 0.00 0.00 0.00 0.00 0.00 0.00 0.01 0.01 0.01 0.01 0.01 0.01 0.01 0.01 0.02 0.02 0.03 0.03 0.05 0.06 0.08 0.11 0.16 0.17 0.10 0.06 0.04 0.04 0.07 0.11 0.10 0.09 0.06
0.00 0.00 0.00 0.00 0.00 0.00 0.00 0.00 0.00 0.00 0.00 0.00 0.00 0.00 0.00 0.00 0.01 0.01 0.01 0.01 0.01 0.01 0.01 0.01 0.02 0.03 0.05 0.07 0.07 0.08 0.09 0.11 0.10 0.10 0.07 0.04 0.03 0.04 0.08 0.15 0.14 0.08 0.06
0.00 0.00 0.00 0.00 0.00 0.00 0.00 0.00 0.00 0.00 0.00 0.00 0.00 0.00 0.00 0.00 0.00 0.00 0.00 0.00 0.00 0.00 0.00 0.01 0.02 0.03 0.08 0.09 0.09 0.08 0.09 0.09 0.08 0.08 0.07 0.05 0.03 0.06 0.10 0.14 0.14 0.09 0.06
0.00 0.00 0.00 0.00 0.00 0.00 0.00 0.00 0.00 0.00 0.00 0.00 0.00 0.00 0.00 0.00 0.00 0.00 0.00 0.00 0.00 0.00 0.00 0.01 0.01 0.01 0.03 0.04 0.04 0.04 0.06 0.08 0.10 0.11 0.10 0.06 0.04 0.08 0.14 0.18 0.17 0.12 0.07
0.00 0.00 0.00 0.00 0.00 0.00 0.00 0.00 0.00 0.00 0.00 0.00 0.00 0.00 0.00 0.00 0.00 0.00 0.00 0.00 0.00 0.01 0.01 0.01 0.01 0.02 0.02 0.01 0.02 0.02 0.03 0.07 0.15 0.19 0.18 0.10 0.07 0.12 0.19 0.21 0.14 0.10 0.08
0.00 0.00 0.00 0.00 0.00 0.00 0.00 0.00 0.00 0.00 0.00 0.00 0.00 0.00 0.00 0.00 0.00 0.00 0.00 0.00 0.01 0.01 0.01 0.02 0.03 0.03 0.02 0.02 0.02 0.02 0.04 0.10 0.18 0.20 0.20 0.17 0.18 0.19 0.21 0.19 0.13 0.09 0.07
0.00 0.00 0.00 0.00 0.00 0.00 0.00 0.00 0.00 0.00 0.00 0.00 0.00 0.00 0.00 0.00 0.00 0.00 0.00 0.00 0.00 0.01 0.01 0.01 0.03 0.02 0.03 0.04 0.04 0.04 0.07 0.12 0.20 0.30 0.33 0.34 0.33 0.25 0.18 0.12 0.10 0.08 0.10
0.00 0.00 0.00 0.00 0.00 0.00 0.00 0.00 0.00 0.00 0.00 0.00 0.00 0.00 0.00 0.01 0.00 0.00 0.01 0.01 0.01 0.01 0.01 0.01 0.02 0.03 0.04 0.05 0.04 0.06 0.11 0.18 0.33 0.47 0.48 0.45 0.36 0.24 0.18 0.14 0.13 0.15 0.17
0.00 0.00 0.00 0.00 0.00 0.00 0.00 0.00 0.00 0.00 0.00 0.00 0.00 0.00 0.01 0.01 0.00 0.00 0.01 0.02 0.03 0.03 0.03 0.03 0.03 0.06 0.07 0.06 0.06 0.11 0.20 0.33 0.51 0.63 0.55 0.39 0.25 0.16 0.14 0.15 0.13 0.13 0.14
0.00 0.00 0.00 0.00 0.00 0.00 0.00 0.00 0.00 0.00 0.00 0.00 0.00 0.00 0.00 0.01 0.00 0.00 0.00 0.01 0.03 0.05 0.06 0.06 0.08 0.11 0.09 0.08 0.12 0.21 0.31 0.45 0.56 0.58 0.44 0.29 0.18 0.12 0.11 0.09 0.07 0.07 0.06
0.00 0.00 0.00 0.00 0.00 0.00 0.00 0.00 0.00 0.00 0.00 0.00 0.00 0.00 0.00 0.00 0.00 0.00 0.00 0.01 0.03 0.05 0.08 0.11 0.13 0.13 0.12 0.16 0.25 0.36 0.42 0.47 0.52 0.44 0.29 0.22 0.17 0.10 0.08 0.07 0.06 0.05 0.05
0.00 0.00 0.00 0.00 0.00 0.00 0.00 0.00 0.00 0.00 0.01 0.01 0.01 0.01 0.01 0.01 0.01 0.02 0.02 0.03 0.05 0.07 0.09 0.13 0.19 0.21 0.23 0.29 0.35 0.41 0.43 0.50 0.48 0.29 0.19 0.16 0.13 0.10 0.08 0.07 0.06 0.06 0.07
0.00 0.00 0.00 0.00 0.00 0.00 0.00 0.00 0.00 0.01 0.01 0.01 0.02 0.02 0.03 0.03 0.03 0.05 0.06 0.08 0.10 0.13 0.12 0.15 0.19 0.23 0.28 0.32 0.33 0.37 0.37 0.36 0.33 0.24 0.19 0.14 0.12 0.10 0.10 0.09 0.08 0.08 0.08
0.00 0.00 0.00 0.00 0.00 0.00 0.00 0.00 0.00 0.00 0.00 0.01 0.01 0.02 0.02 0.04 0.03 0.03 0.04 0.07 0.11 0.14 0.14 0.19 0.27 0.33 0.37 0.39 0.36 0.35 0.34 0.29 0.26 0.23 0.20 0.16 0.13 0.11 0.12 0.12 0.11 0.10 0.09
0.00 0.00 0.00 0.00 0.00 0.00 0.00 0.00 0.01 0.01 0.01 0.00 0.00 0.01 0.02 0.03 0.03 0.02 0.03 0.06 0.08 0.11 0.13 0.22 0.32 0.42 0.46 0.43 0.36 0.32 0.35 0.35 0.34 0.29 0.21 0.17 0.15 0.13 0.12 0.12 0.11 0.11 0.10
0.00 0.00 0.00 0.00 0.00 0.00 0.00 0.01 0.01 0.02 0.02 0.02 0.01 0.01 0.01 0.02 0.03 0.02 0.03 0.04 0.05 0.09 0.16 0.27 0.35 0.40 0.42 0.42 0.38 0.35 0.37 0.40 0.37 0.29 0.22 0.18 0.15 0.11 0.10 0.10 0.10 0.08 0.06
0.00 0.00 0.00 0.00 0.00 0.00 0.00 0.01 0.01 0.02 0.03 0.03 0.02 0.01 0.01 0.02 0.03 0.04 0.04 0.04 0.07 0.12 0.20 0.27 0.33 0.33 0.30 0.29 0.29 0.29 0.32 0.36 0.33 0.26 0.21 0.16 0.12 0.09 0.10 0.10 0.07 0.05 0.03
0.00 0.00 0.00 0.00 0.00 0.00 0.00 0.00 0.01 0.02 0.03 0.03 0.03 0.02 0.02 0.03 0.04 0.05 0.05 0.04 0.06 0.10 0.17 0.25 0.31 0.28 0.22 0.19 0.17 0.17 0.19 0.22 0.21 0.18 0.15 0.12 0.11 0.10 0.10 0.08 0.05 0.03 0.02
0.00 0.00 0.00 0.00 0.00 0.00 0.00 0.00 0.01 0.01 0.02 0.03 0.03 0.04 0.06 0.05 0.06 0.08 0.09 0.11 0.12 0.12 0.13 0.15 0.20 0.24 0.22 0.17 0.13 0.11 0.11 0.12 0.12 0.12 0.11 0.11 0.11 0.10 0.07 0.05 0.04 0.02 0.02
0.00 0.00 0.00 0.00 0.00 0.00 0.00 0.00 0.00 0.01 0.02 0.03 0.03 0.04 0.07 0.05 0.06 0.08 0.12 0.15 0.17 0.18 0.16 0.14 0.14 0.17 0.20 0.20 0.14 0.10 0.09 0.10 0.11 0.11 0.10 0.10 0.10 0.09 0.06 0.04 0.03 0.02 0.02
0.00 0.00 0.00 0.00 0.00 0.00 0.00 0.00 0.00 0.00 0.01 0.02 0.04 0.04 0.05 0.06 0.07 0.09 0.13 0.15 0.17 0.18 0.16 0.14 0.15 0.18 0.20 0.21 0.17 0.12 0.10 0.09 0.10 0.09 0.10 0.10 0.10 0.08 0.05 0.03 0.02 0.02 0.01
0.00 0.00 0.00 0.00 0.00 0.00 0.00 0.00 0.00 0.00 0.00 0.01 0.02 0.03 0.05 0.07 0.08 0.09 0.12 0.16 0.17 0.18 0.19 0.19 0.20 0.21 0.21 0.21 0.18 0.11 0.09 0.09 0.09 0.08 0.08 0.08 0.08 0.07 0.04 0.02 0.02 0.01 0.01
0.00 0.00 0.00 0.00 0.00 0.00 0.00 0.00 0.00 0.00 0.00 0.00 0.00 0.01 0.02 0.04 0.06 0.07 0.09 0.12 0.14 0.17 0.17 0.17 0.18 0.19 0.18 0.16 0.13 0.09 0.08 0.09 0.09 0.09 0.07 0.06 0.06 0.05 0.03 0.03 0.02 0.02 0.01
0.00 0.00 0.00 0.00 0.00 0.00 0.00 0.00 0.00 0.00 0.00 0.00 0.00 0.00 0.01 0.01 0.03 0.04 0.05 0.05 0.07 0.10 0.13 0.15 0.15 0.14 0.11 0.08 0.07 0.07 0.06 0.05 0.04 0.04 0.06 0.06 0.05 0.04 0.03 0.03 0.02 0.01 0.01